Weather Roundup
Issued by NWS Springfield, MO

Home | Current Version | Previous Version | Text Only | Print | Product List | Glossary On
Versions: 1 2 3 4 5 6 7 8 9 10 11 12 13 14 15 16 17 18 19 20 21 22 23 24 25 26 27 28 29 30 31 32 33 34 35 36 37 38 39 40 41 42 43 44 45 46 47 48 49 50
000
NZUS99 KSGF 301159
HRRSGF

HOURLY WEATHER
NATIONAL WEATHER SERVICE SPRINGFIELD MO
700 AM CDT THU JUL 30 2015

......SGF CWA......

CITY           SKY/WX    TMP DP  RH WIND       PRES   REMARKS
SPRINGFIELD    PTCLDY    69  64  84 CALM      30.17S
6HR MIN TEMP:  69; 6HR MAX TEMP:  75;

JOPLIN         PTCLDY    73  66  78 E6        30.16R
6HR MIN TEMP:  72; 6HR MAX TEMP:  77;

WEST PLAINS    CLEAR     67  62  84 CALM      30.19R
6HR MIN TEMP:  65; 6HR MAX TEMP:  74;

ROLLA          CLEAR     64  60  87 CALM      30.17R
6HR MIN TEMP:  61; 6HR MAX TEMP:  67;

OSAGE BEACH    CLEAR     63  61  94 CALM      30.18S
BRANSON        CLEAR     72  68  88 CALM      30.19R

......SURROUNDING SGF CWA......

CITY           SKY/WX    TMP DP  RH WIND       PRES   REMARKS
CHANUTE        PTCLDY    73  66  78 E6        30.17R
PARSONS        CLEAR     73  66  78 CALM      30.17R
COFFEYVILLE    CLEAR     73  66  78 NE6       30.14R
EMPORIA        MOCLDY    70  66  87 E3        30.19R
SILOAM SPRINGS CLEAR     73  66  78 E6        30.14R
HARRISON AR    CLEAR     73  69  87 E3        30.18R
NEAR YELLVILLE CLEAR     73  64  73 CALM      30.15R

......KANSAS AND MISSOURI......

CITY           SKY/WX    TMP DP  RH WIND       PRES   REMARKS
KANSAS CTY INT PTCLDY    67  63  87 N3        30.19R
DOWNTOWN KC    CLEAR     68  66  93 CALM      30.18R
COLUMBIA       CLEAR     66  64  93 NW3       30.17S
SEDALIA        CLEAR     67  63  87 SW3       30.19R
ST JOSEPH      FOG       62  62 100 CALM      30.19R VSB 1/4
ST LOUIS       PTCLDY    72  62  71 CALM      30.15R
SPIRIT OF STL  PTCLDY    65  64  97 CALM      30.14R
KIRKSVILLE     CLEAR     64  59  83 W6        30.17S
WICHITA        TSTM      72  68  87 NW30G40   30.23R FOG
TOPEKA         CLEAR     65  65 100 CALM      30.19R
OLATHE         CLEAR     68  64  87 CALM      30.18R

......TENNESSEE......

CITY           SKY/WX    TMP DP  RH WIND       PRES   REMARKS
MEMPHIS        PTCLDY    81  73  76 N12       30.07R
NASHVILLE      PTSUNNY   77  68  73 N12       30.07R

......ARKANSAS.......

CITY           SKY/WX    TMP DP  RH WIND       PRES   REMARKS
FAYETTEVILLE   PTCLDY    73  72  96 VRB3      30.15R
FT SMITH       PTCLDY    79  74  84 E5        30.08R
LITTLE ROCK    MOCLDY    81  73  76 NE7       30.09R

......OKLAHOMA.......

CITY           SKY/WX    TMP DP  RH WIND       PRES   REMARKS
TULSA          PTCLDY    77  72  84 N8        30.10R
PONCA CITY     MOCLDY    77  69  76 E8        30.11S
MCALESTER      MOCLDY    76  73  91 CALM      30.09R
OKLAHOMA CITY  PTCLDY    76  74  93 E6        30.12R

......IOWA............

CITY           SKY/WX    TMP DP  RH WIND       PRES   REMARKS
DES MOINES     CLEAR     65  57  75 SW5       30.14S
QUAD CITIES    SUNNY     66  60  81 W7        30.10S

......ILLINOIS........

CITY           SKY/WX    TMP DP  RH WIND       PRES   REMARKS
QUINCY         PTCLDY    67  60  78 W3        30.15R
CHICAGO        SUNNY     67  59  75 W8        30.05R



USA.gov is the U.S. government's official web portal to all federal, state and local government web resources and services.